Time,TemperatureF,DewpointF,PressureIn,WindDirection,WindDirectionDegrees,WindSpeedMPH,WindSpeedGustMPH,Humidity,HourlyPrecipIn,Conditions,Clouds,dailyrainin,SoftwareType,DateUTC
2013-06-10 00:01:00,71.3,68.9,30.08,SE,130,5.0,10.0,92,0.00,,CLR,0.00,VWS V14.01,2013-06-10 04:01:00,
2013-06-10 00:02:00,71.3,68.9,30.08,SE,126,7.0,10.0,92,0.00,,CLR,0.00,VWS V14.01,2013-06-10 04:02:00,
2013-06-10 00:03:00,71.3,68.9,30.08,SE,130,5.0,10.0,92,0.00,,CLR,0.00,VWS V14.01,2013-06-10 04:03:00,
2013-06-10 00:08:00,71.2,68.8,30.08,SE,134,6.0,9.0,92,0.00,,CLR,0.00,VWS V14.01,2013-06-10 04:08:00,
2013-06-10 00:13:00,71.2,68.8,30.08,SE,129,7.0,10.0,92,0.00,,CLR,0.00,VWS V14.01,2013-06-10 04:13:00,
2013-06-10 00:18:00,71.1,69.0,30.08,SE,140,7.0,11.0,93,0.00,,CLR,0.00,VWS V14.01,2013-06-10 04:18:00,
2013-06-10 00:23:00,71.0,68.9,30.08,SSE,147,7.0,11.0,93,0.00,,CLR,0.00,VWS V14.01,2013-06-10 04:23:00,
2013-06-10 00:28:00,70.9,68.8,30.08,SE,132,6.0,10.0,93,0.00,,CLR,0.00,VWS V14.01,2013-06-10 04:28:00,
2013-06-10 00:33:00,71.0,68.9,30.07,SE,136,10.0,11.0,93,0.00,,CLR,0.00,VWS V14.01,2013-06-10 04:33:00,
2013-06-10 00:38:00,71.0,69.2,30.07,SE,125,7.0,12.0,94,0.00,,CLR,0.00,VWS V14.01,2013-06-10 04:38:00,
2013-06-10 00:43:00,70.9,69.1,30.07,SE,126,9.0,11.0,94,0.00,,CLR,0.00,VWS V14.01,2013-06-10 04:43:00,
2013-06-10 00:48:00,70.9,69.1,30.07,SE,136,7.0,11.0,94,0.00,,CLR,0.00,VWS V14.01,2013-06-10 04:48:00,
2013-06-10 00:53:00,70.8,69.0,30.07,SE,132,8.0,11.0,94,0.00,,CLR,0.00,VWS V14.01,2013-06-10 04:53:00,
2013-06-10 00:58:00,70.7,68.9,30.07,SE,143,9.0,12.0,94,0.00,,CLR,0.00,VWS V14.01,2013-06-10 04:58:00,
2013-06-10 01:03:00,70.6,68.8,30.07,SE,132,6.0,10.0,94,0.00,,CLR,0.00,VWS V14.01,2013-06-10 05:03:00,
2013-06-10 01:08:00,70.5,68.7,30.07,SE,135,8.0,11.0,94,0.00,,CLR,0.00,VWS V14.01,2013-06-10 05:08:00,
2013-06-10 01:13:00,70.4,68.9,30.07,SE,130,9.0,10.0,95,0.00,,CLR,0.00,VWS V14.01,2013-06-10 05:13:00,
2013-06-10 01:18:00,70.4,68.9,30.07,SE,137,9.0,12.0,95,0.00,,CLR,0.00,VWS V14.01,2013-06-10 05:18:00,
2013-06-10 01:23:00,70.4,68.9,30.07,SE,132,7.0,9.0,95,0.00,,CLR,0.00,VWS V14.01,2013-06-10 05:23:00,
2013-06-10 01:28:00,70.6,69.4,30.06,SE,136,6.0,9.0,96,0.00,,CLR,0.00,VWS V14.01,2013-06-10 05:28:00,
2013-06-10 01:33:00,70.8,69.6,30.07,SSE,162,9.0,12.0,96,0.00,,CLR,0.00,VWS V14.01,2013-06-10 05:33:00,
2013-06-10 01:38:00,70.9,69.7,30.06,SSE,148,9.0,13.0,96,0.00,,CLR,0.00,VWS V14.01,2013-06-10 05:38:00,
2013-06-10 01:43:00,70.9,69.7,30.06,SSE,154,6.0,12.0,96,0.00,,SCT044,0.00,VWS V14.01,2013-06-10 05:43:00,
2013-06-10 01:48:00,71.0,69.8,30.06,SSE,150,9.0,12.0,96,0.00,,SCT044,0.00,VWS V14.01,2013-06-10 05:48:00,
2013-06-10 01:53:00,71.1,70.2,30.06,SE,142,6.0,10.0,97,0.00,,SCT044,0.00,VWS V14.01,2013-06-10 05:53:00,
2013-06-10 01:58:00,71.2,70.3,30.05,SE,129,6.0,11.0,97,0.00,,SCT044,0.00,VWS V14.01,2013-06-10 05:58:00,
2013-06-10 02:03:00,71.2,70.3,30.05,ESE,122,5.0,9.0,97,0.00,,SCT044,0.00,VWS V14.01,2013-06-10 06:03:00,
2013-06-10 02:08:00,71.2,70.3,30.05,SE,140,8.0,11.0,97,0.00,,SCT044,0.00,VWS V14.01,2013-06-10 06:08:00,
2013-06-10 02:13:00,71.3,70.4,30.05,SE,146,7.0,11.0,97,0.00,,SCT044,0.00,VWS V14.01,2013-06-10 06:13:00,
2013-06-10 02:19:00,71.5,70.6,30.05,SE,138,6.0,10.0,97,0.00,,SCT044,0.00,VWS V14.01,2013-06-10 06:19:00,
2013-06-10 02:24:00,71.6,71.0,30.05,SE,132,10.0,10.0,98,0.00,,SCT044,0.00,VWS V14.01,2013-06-10 06:24:00,
2013-06-10 02:29:00,71.7,71.1,30.05,SSE,148,9.0,12.0,98,0.00,,SCT044,0.00,VWS V14.01,2013-06-10 06:29:00,
2013-06-10 02:34:00,71.8,71.2,30.05,SE,132,6.0,10.0,98,0.00,,SCT044,0.00,VWS V14.01,2013-06-10 06:34:00,
2013-06-10 02:39:00,72.0,71.4,30.04,SSE,149,11.0,12.0,98,0.00,,SCT044,0.00,VWS V14.01,2013-06-10 06:39:00,
2013-06-10 02:44:00,72.2,71.6,30.04,SE,144,7.0,11.0,98,0.00,,SCT044,0.00,VWS V14.01,2013-06-10 06:44:00,
2013-06-10 02:49:00,72.4,71.8,30.04,SE,146,9.0,13.0,98,0.00,,SCT044,0.00,VWS V14.01,2013-06-10 06:49:00,
2013-06-10 02:54:00,72.4,71.8,30.04,SSE,152,10.0,13.0,98,0.00,,SCT044,0.00,VWS V14.01,2013-06-10 06:54:00,
2013-06-10 02:59:00,72.5,71.9,30.04,SSE,148,10.0,12.0,98,0.00,,SCT044,0.00,VWS V14.01,2013-06-10 06:59:00,
2013-06-10 03:04:00,72.6,72.0,30.04,SSE,153,7.0,12.0,98,0.00,,SCT044,0.00,VWS V14.01,2013-06-10 07:04:00,
2013-06-10 03:09:00,72.6,72.0,30.04,SSE,148,8.0,12.0,98,0.00,,SCT044,0.00,VWS V14.01,2013-06-10 07:09:00,
2013-06-10 03:14:00,72.7,72.1,30.04,SSE,159,10.0,13.0,98,0.00,,SCT044,0.00,VWS V14.01,2013-06-10 07:14:00,
2013-06-10 03:19:00,72.8,72.2,30.04,SSE,157,9.0,12.0,98,0.00,,SCT044,0.00,VWS V14.01,2013-06-10 07:19:00,
2013-06-10 03:24:00,72.8,72.2,30.03,SSE,164,7.0,10.0,98,0.00,,SCT044,0.00,VWS V14.01,2013-06-10 07:24:00,
2013-06-10 03:29:00,72.9,72.3,30.04,SSE,157,9.0,12.0,98,0.00,,SCT044,0.00,VWS V14.01,2013-06-10 07:29:00,
2013-06-10 03:34:00,73.0,72.4,30.03,SE,143,6.0,11.0,98,0.00,,SCT044,0.00,VWS V14.01,2013-06-10 07:34:00,
2013-06-10 03:39:00,73.1,72.8,30.03,SSE,152,10.0,12.0,99,0.00,,SCT044,0.00,VWS V14.01,2013-06-10 07:39:00,
2013-06-10 03:44:00,73.1,72.8,30.03,SSE,161,10.0,12.0,99,0.00,,SCT044,0.00,VWS V14.01,2013-06-10 07:44:00,
2013-06-10 03:49:00,73.2,72.9,30.03,SSE,165,12.0,13.0,99,0.00,,SCT044,0.00,VWS V14.01,2013-06-10 07:49:00,
2013-06-10 03:54:00,73.2,72.9,30.03,SSE,158,10.0,14.0,99,0.00,,SCT044,0.00,VWS V14.01,2013-06-10 07:54:00,
2013-06-10 03:59:00,73.3,73.0,30.03,SSE,162,11.0,13.0,99,0.00,,SCT044,0.00,VWS V14.01,2013-06-10 07:59:00,
2013-06-10 04:04:00,73.4,73.1,30.02,SSE,150,13.0,14.0,99,0.00,,,0.00,VWS V14.01,2013-06-10 08:04:00,
2013-06-10 04:09:00,73.4,73.1,30.02,SSE,155,11.0,14.0,99,0.00,,,0.00,VWS V14.01,2013-06-10 08:09:00,
2013-06-10 04:14:00,73.5,73.2,30.02,SSE,161,11.0,14.0,99,0.00,,,0.00,VWS V14.01,2013-06-10 08:14:00,
2013-06-10 04:19:00,73.5,72.9,30.03,South,172,11.0,13.0,98,0.00,,,0.00,VWS V14.01,2013-06-10 08:19:00,
2013-06-10 04:24:00,73.5,72.9,30.03,South,173,6.0,9.0,98,0.00,,,0.00,VWS V14.01,2013-06-10 08:24:00,
2013-06-10 04:29:00,73.6,73.0,30.03,SSE,168,9.0,16.0,98,0.00,,,0.00,VWS V14.01,2013-06-10 08:29:00,
2013-06-10 04:34:00,73.6,73.0,30.03,South,186,7.0,13.0,98,0.00,,,0.00,VWS V14.01,2013-06-10 08:34:00,
2013-06-10 04:39:00,73.6,73.0,30.03,South,170,8.0,11.0,98,0.00,,,0.00,VWS V14.01,2013-06-10 08:39:00,
2013-06-10 04:44:00,73.5,72.9,30.03,SSE,154,6.0,7.0,98,0.00,,,0.00,VWS V14.01,2013-06-10 08:44:00,
2013-06-10 04:49:00,73.5,72.9,30.03,SW,228,0.0,5.0,98,0.00,,,0.00,VWS V14.01,2013-06-10 08:49:00,
2013-06-10 04:54:00,73.4,72.8,30.03,SSW,197,4.0,11.0,98,0.00,,,0.00,VWS V14.01,2013-06-10 08:54:00,
2013-06-10 04:59:00,73.1,72.5,30.03,WSW,242,2.0,6.0,98,0.00,,,0.00,VWS V14.01,2013-06-10 08:59:00,
2013-06-10 05:04:00,73.0,72.4,30.03,SW,230,3.0,5.0,98,0.00,,,0.00,VWS V14.01,2013-06-10 09:04:00,
2013-06-10 05:09:00,72.8,71.9,30.03,WSW,241,3.0,5.0,97,0.00,,,0.00,VWS V14.01,2013-06-10 09:09:00,
2013-06-10 05:14:00,72.5,71.6,30.03,WSW,250,0.0,3.0,97,0.00,,,0.00,VWS V14.01,2013-06-10 09:14:00,
2013-06-10 05:19:00,72.3,71.4,30.03,West,275,0.0,3.0,97,0.00,,,0.00,VWS V14.01,2013-06-10 09:19:00,
2013-06-10 05:24:00,72.2,71.3,30.03,West,276,2.0,4.0,97,0.01,,,0.01,VWS V14.01,2013-06-10 09:24:00,
2013-06-10 05:29:00,72.0,71.1,30.03,NW,312,2.0,3.0,97,0.01,,,0.01,VWS V14.01,2013-06-10 09:29:00,
2013-06-10 05:34:00,71.7,70.8,30.02,NW,321,0.0,0.0,97,0.01,,,0.01,VWS V14.01,2013-06-10 09:34:00,
2013-06-10 05:39:00,71.6,70.7,30.02,NNW,328,0.0,0.0,97,0.01,,,0.01,VWS V14.01,2013-06-10 09:39:00,
2013-06-10 05:44:00,71.5,70.6,30.03,NNW,327,0.0,0.0,97,0.01,,,0.01,VWS V14.01,2013-06-10 09:44:00,
2013-06-10 05:49:00,71.3,70.4,30.03,NNW,327,0.0,0.0,97,0.01,,,0.01,VWS V14.01,2013-06-10 09:49:00,
2013-06-10 05:54:00,71.2,70.3,30.03,NW,317,0.0,0.0,97,0.01,,,0.01,VWS V14.01,2013-06-10 09:54:00,
2013-06-10 05:59:00,71.0,70.1,30.03,NW,317,0.0,0.0,97,0.01,,,0.01,VWS V14.01,2013-06-10 09:59:00,
2013-06-10 06:04:00,70.9,70.0,30.03,NW,317,0.0,0.0,97,0.01,,,0.01,VWS V14.01,2013-06-10 10:04:00,
2013-06-10 06:09:00,70.8,69.9,30.03,NW,317,0.0,0.0,97,0.01,,,0.01,VWS V14.01,2013-06-10 10:09:00,
2013-06-10 06:14:00,70.8,69.9,30.03,NW,312,0.0,0.0,97,0.01,,,0.01,VWS V14.01,2013-06-10 10:14:00,
2013-06-10 06:19:00,70.7,69.8,30.03,NW,312,0.0,0.0,97,0.01,,,0.01,VWS V14.01,2013-06-10 10:19:00,
2013-06-10 06:24:00,70.7,69.8,30.03,NW,312,0.0,0.0,97,0.01,,,0.01,VWS V14.01,2013-06-10 10:24:00,
2013-06-10 06:29:00,70.7,69.8,30.03,NW,312,0.0,0.0,97,0.01,,,0.01,VWS V14.01,2013-06-10 10:29:00,
2013-06-10 06:35:00,70.7,70.1,30.03,WNW,292,0.0,0.0,98,0.00,,,0.01,VWS V14.01,2013-06-10 10:35:00,
2013-06-10 06:40:00,70.8,70.2,30.03,WNW,292,0.0,0.0,98,0.00,,,0.01,VWS V14.01,2013-06-10 10:40:00,
2013-06-10 06:45:00,71.0,70.4,30.03,WNW,292,0.0,0.0,98,0.00,,,0.01,VWS V14.01,2013-06-10 10:45:00,
2013-06-10 06:50:00,71.2,70.6,30.03,SSW,200,0.0,3.0,98,0.00,,,0.01,VWS V14.01,2013-06-10 10:50:00,
2013-06-10 06:55:00,71.5,70.9,30.03,SSW,200,4.0,5.0,98,0.00,,,0.01,VWS V14.01,2013-06-10 10:55:00,
2013-06-10 07:00:00,71.7,71.1,30.02,South,178,3.0,5.0,98,0.00,,,0.01,VWS V14.01,2013-06-10 11:00:00,
2013-06-10 07:05:00,71.7,71.1,30.02,South,177,0.0,2.0,98,0.00,,,0.01,VWS V14.01,2013-06-10 11:05:00,
2013-06-10 07:10:00,71.5,70.6,30.03,South,177,2.0,4.0,97,0.00,,,0.01,VWS V14.01,2013-06-10 11:10:00,
2013-06-10 07:15:00,71.5,70.6,30.03,South,177,3.0,5.0,97,0.00,,,0.01,VWS V14.01,2013-06-10 11:15:00,
2013-06-10 07:20:00,71.5,70.6,30.03,South,181,3.0,5.0,97,0.00,,,0.01,VWS V14.01,2013-06-10 11:20:00,
2013-06-10 07:25:00,71.7,71.1,30.03,South,179,3.0,3.0,98,0.00,,,0.01,VWS V14.01,2013-06-10 11:25:00,
2013-06-10 07:30:00,72.1,71.5,30.02,South,186,3.0,5.0,98,0.00,,,0.01,VWS V14.01,2013-06-10 11:30:00,
2013-06-10 07:35:00,72.3,71.7,30.03,SSE,162,3.0,6.0,98,0.00,,,0.01,VWS V14.01,2013-06-10 11:35:00,
2013-06-10 07:40:00,72.4,71.8,30.02,SSE,167,0.0,5.0,98,0.00,,,0.01,VWS V14.01,2013-06-10 11:40:00,
2013-06-10 07:45:00,72.6,72.0,30.03,South,186,4.0,6.0,98,0.00,,SCT050,0.01,VWS V14.01,2013-06-10 11:45:00,
2013-06-10 07:50:00,72.7,71.8,30.03,SSE,167,4.0,5.0,97,0.00,,SCT060,0.01,VWS V14.01,2013-06-10 11:50:00,
2013-06-10 07:55:00,72.8,71.9,30.03,South,173,3.0,5.0,97,0.00,,SCT060,0.01,VWS V14.01,2013-06-10 11:55:00,
2013-06-10 08:00:00,72.8,71.9,30.02,South,173,3.0,5.0,97,0.00,,SCT060,0.01,VWS V14.01,2013-06-10 12:00:00,
2013-06-10 08:05:00,72.8,71.9,30.02,SSE,166,1.0,6.0,97,0.00,,SCT060,0.01,VWS V14.01,2013-06-10 12:05:00,
2013-06-10 08:10:00,73.0,72.1,30.02,South,172,0.0,6.0,97,0.00,,SCT060,0.01,VWS V14.01,2013-06-10 12:10:00,
2013-06-10 08:15:00,73.2,72.3,30.02,SSE,159,7.0,7.0,97,0.00,,SCT060,0.01,VWS V14.01,2013-06-10 12:15:00,
2013-06-10 08:20:00,73.2,72.3,30.02,SSE,154,6.0,10.0,97,0.00,,SCT060,0.01,VWS V14.01,2013-06-10 12:20:00,
2013-06-10 08:25:00,73.5,72.6,30.02,SSE,159,6.0,10.0,97,0.00,,SCT060,0.01,VWS V14.01,2013-06-10 12:25:00,
2013-06-10 08:30:00,73.7,72.8,30.02,SSE,161,5.0,11.0,97,0.00,,SCT060,0.01,VWS V14.01,2013-06-10 12:30:00,
2013-06-10 08:35:00,73.7,72.5,30.02,SSE,163,7.0,10.0,96,0.00,,SCT060,0.01,VWS V14.01,2013-06-10 12:35:00,
2013-06-10 08:40:00,73.7,72.5,30.02,SSW,192,4.0,10.0,96,0.00,,SCT060,0.01,VWS V14.01,2013-06-10 12:40:00,
2013-06-10 08:45:00,73.7,72.5,30.02,SSE,163,7.0,9.0,96,0.00,,SCT060,0.01,VWS V14.01,2013-06-10 12:45:00,
2013-06-10 08:50:00,73.9,72.7,30.02,SSE,165,4.0,10.0,96,0.00,,-RA,0.01,VWS V14.01,2013-06-10 12:50:00,
2013-06-10 08:55:00,73.9,73.0,30.01,SSE,160,11.0,11.0,97,0.00,,-RA,0.01,VWS V14.01,2013-06-10 12:55:00,
2013-06-10 09:00:00,74.0,73.1,30.01,South,173,9.0,11.0,97,0.00,,-RA,0.01,VWS V14.01,2013-06-10 13:00:00,
2013-06-10 09:05:00,74.2,73.3,30.01,SSE,163,5.0,10.0,97,0.00,,-RA,0.01,VWS V14.01,2013-06-10 13:05:00,
2013-06-10 09:10:00,74.4,73.5,30.01,SSE,160,7.0,10.0,97,0.00,,-RA,0.01,VWS V14.01,2013-06-10 13:10:00,
2013-06-10 09:15:00,74.4,73.5,30.01,SSE,167,6.0,11.0,97,0.00,,-RA,0.01,VWS V14.01,2013-06-10 13:15:00,
2013-06-10 09:20:00,74.6,73.7,30.01,SSE,165,6.0,11.0,97,0.00,,-RA,0.01,VWS V14.01,2013-06-10 13:20:00,
2013-06-10 09:25:00,75.0,74.1,30.01,South,178,8.0,11.0,97,0.00,,-RA,0.01,VWS V14.01,2013-06-10 13:25:00,
2013-06-10 09:30:00,74.9,73.7,30.00,South,176,6.0,10.0,96,0.00,,-RA,0.01,VWS V14.01,2013-06-10 13:30:00,
2013-06-10 09:35:00,74.9,74.0,30.00,SSE,163,7.0,9.0,97,0.00,,-RA,0.01,VWS V14.01,2013-06-10 13:35:00,
2013-06-10 09:40:00,75.2,74.3,30.00,South,187,7.0,7.0,97,0.00,,OVC120,0.01,VWS V14.01,2013-06-10 13:40:00,
2013-06-10 09:45:00,75.3,74.4,30.00,SSE,165,6.0,9.0,97,0.00,,OVC120,0.01,VWS V14.01,2013-06-10 13:45:00,
2013-06-10 09:50:00,75.1,73.9,30.00,South,169,8.0,11.0,96,0.00,,OVC120,0.01,VWS V14.01,2013-06-10 13:50:00,
2013-06-10 09:55:00,75.1,73.9,30.00,South,171,9.0,10.0,96,0.00,,OVC120,0.01,VWS V14.01,2013-06-10 13:55:00,
2013-06-10 10:00:00,75.3,74.1,29.99,SSE,167,8.0,9.0,96,0.00,,OVC120,0.01,VWS V14.01,2013-06-10 14:00:00,
2013-06-10 10:05:00,75.6,74.4,29.99,SSE,164,7.0,10.0,96,0.00,,OVC120,0.01,VWS V14.01,2013-06-10 14:05:00,
2013-06-10 10:10:00,75.9,74.7,29.99,South,176,6.0,9.0,96,0.00,,OVC120,0.01,VWS V14.01,2013-06-10 14:10:00,
2013-06-10 10:15:00,76.0,74.5,29.98,South,175,5.0,11.0,95,0.00,,OVC120,0.01,VWS V14.01,2013-06-10 14:15:00,
2013-06-10 10:20:00,75.9,74.1,29.98,South,184,4.0,10.0,94,0.00,,OVC120,0.01,VWS V14.01,2013-06-10 14:20:00,
2013-06-10 10:25:00,76.7,75.5,29.99,South,181,5.0,11.0,96,0.00,,OVC120,0.01,VWS V14.01,2013-06-10 14:25:00,
2013-06-10 10:30:00,76.9,75.1,29.99,South,169,11.0,12.0,94,0.00,,OVC120,0.01,VWS V14.01,2013-06-10 14:30:00,
2013-06-10 10:35:00,76.8,74.9,29.99,South,169,9.0,13.0,94,0.00,,OVC120,0.01,VWS V14.01,2013-06-10 14:35:00,
2013-06-10 10:41:00,76.7,74.8,29.99,SSE,158,12.0,13.0,94,0.00,,OVC120,0.01,VWS V14.01,2013-06-10 14:41:00,
2013-06-10 10:46:00,76.6,74.8,29.99,South,171,7.0,9.0,94,0.00,,OVC120,0.01,VWS V14.01,2013-06-10 14:46:00,
2013-06-10 10:50:00,76.4,74.6,29.99,South,178,5.0,11.0,94,0.00,,OVC120,0.01,VWS V14.01,2013-06-10 14:50:00,
2013-06-10 10:55:00,76.2,74.0,29.99,SSE,163,10.0,13.0,93,0.00,,OVC120,0.01,VWS V14.01,2013-06-10 14:55:00,
2013-06-10 11:01:00,76.2,74.0,29.98,South,172,11.0,14.0,93,0.00,,OVC120,0.01,VWS V14.01,2013-06-10 15:01:00,
2013-06-10 11:06:00,76.3,74.1,29.98,South,176,10.0,15.0,93,0.00,,OVC120,0.01,VWS V14.01,2013-06-10 15:06:00,
2013-06-10 11:11:00,76.4,74.2,29.98,South,177,11.0,13.0,93,0.00,,OVC120,0.01,VWS V14.01,2013-06-10 15:11:00,
2013-06-10 11:16:00,76.4,74.2,29.98,SSE,165,6.0,13.0,93,0.00,,OVC120,0.01,VWS V14.01,2013-06-10 15:16:00,
2013-06-10 11:21:00,76.6,74.4,29.98,SSE,150,12.0,14.0,93,0.00,,OVC120,0.01,VWS V14.01,2013-06-10 15:21:00,
2013-06-10 11:26:00,76.6,74.4,29.98,South,175,12.0,14.0,93,0.00,,OVC120,0.01,VWS V14.01,2013-06-10 15:26:00,
2013-06-10 11:31:00,76.6,74.1,29.97,South,181,9.0,15.0,92,0.00,,OVC120,0.01,VWS V14.01,2013-06-10 15:31:00,
2013-06-10 11:36:00,76.8,74.3,29.97,South,181,12.0,13.0,92,0.00,,OVC120,0.01,VWS V14.01,2013-06-10 15:36:00,
2013-06-10 11:41:00,76.8,74.3,29.97,South,175,13.0,16.0,92,0.00,,BKN050,0.01,VWS V14.01,2013-06-10 15:41:00,
2013-06-10 11:46:00,76.7,74.2,29.97,South,173,11.0,17.0,92,0.00,,BKN050,0.01,VWS V14.01,2013-06-10 15:46:00,
2013-06-10 11:51:00,76.7,74.2,29.97,South,183,10.0,17.0,92,0.00,,BKN025,0.01,VWS V14.01,2013-06-10 15:51:00,
2013-06-10 11:56:00,76.5,74.3,29.97,South,176,11.0,15.0,93,0.00,,BKN025,0.01,VWS V14.01,2013-06-10 15:56:00,
2013-06-10 12:02:00,76.3,74.1,29.97,South,171,11.0,13.0,93,0.00,,BKN025,0.01,VWS V14.01,2013-06-10 16:02:00,
2013-06-10 12:07:00,76.2,74.0,29.97,South,173,12.0,14.0,93,0.00,,BKN025,0.01,VWS V14.01,2013-06-10 16:07:00,
2013-06-10 12:12:00,76.3,74.4,29.96,South,187,12.0,13.0,94,0.00,,BKN025,0.01,VWS V14.01,2013-06-10 16:12:00,
2013-06-10 12:17:00,76.4,74.2,29.96,South,173,14.0,17.0,93,0.00,,BKN025,0.01,VWS V14.01,2013-06-10 16:17:00,
2013-06-10 12:22:00,76.6,74.8,29.95,South,181,7.0,13.0,94,0.00,,BKN025,0.01,VWS V14.01,2013-06-10 16:22:00,
2013-06-10 12:27:00,77.0,75.1,29.95,SSE,161,4.0,11.0,94,0.00,,BKN025,0.01,VWS V14.01,2013-06-10 16:27:00,
2013-06-10 12:32:00,77.4,75.2,29.95,SSE,160,10.0,13.0,93,0.00,,BKN025,0.01,VWS V14.01,2013-06-10 16:32:00,
2013-06-10 12:37:00,77.5,75.0,29.95,South,181,9.0,14.0,92,0.00,,BKN025,0.01,VWS V14.01,2013-06-10 16:37:00,
2013-06-10 12:42:00,77.7,75.2,29.95,South,172,10.0,13.0,92,0.00,,SCT023,0.01,VWS V14.01,2013-06-10 16:42:00,
2013-06-10 12:47:00,77.8,75.0,29.94,South,172,12.0,18.0,91,0.00,,SCT023,0.01,VWS V14.01,2013-06-10 16:47:00,
2013-06-10 12:52:00,77.9,75.4,29.94,SSE,167,10.0,12.0,92,0.00,,SCT023,0.01,VWS V14.01,2013-06-10 16:52:00,
2013-06-10 12:57:00,78.1,75.3,29.94,South,179,11.0,14.0,91,0.00,,SCT023,0.01,VWS V14.01,2013-06-10 16:57:00,
2013-06-10 13:02:00,78.1,75.3,29.94,SSE,161,11.0,13.0,91,0.00,,SCT023,0.01,VWS V14.01,2013-06-10 17:02:00,
2013-06-10 13:07:00,77.8,75.0,29.93,SSE,147,9.0,13.0,91,0.00,,SCT023,0.01,VWS V14.01,2013-06-10 17:07:00,
2013-06-10 13:12:00,78.0,75.2,29.93,SSW,198,9.0,15.0,91,0.00,,SCT023,0.01,VWS V14.01,2013-06-10 17:12:00,
2013-06-10 13:17:00,78.1,74.9,29.93,South,170,11.0,14.0,90,0.00,,SCT023,0.01,VWS V14.01,2013-06-10 17:17:00,
2013-06-10 13:22:00,78.0,74.8,29.93,South,181,11.0,13.0,90,0.00,,SCT023,0.01,VWS V14.01,2013-06-10 17:22:00,
2013-06-10 13:27:00,78.3,75.5,29.92,South,178,14.0,14.0,91,0.00,,SCT023,0.01,VWS V14.01,2013-06-10 17:27:00,
2013-06-10 13:32:00,78.2,75.0,29.92,SSE,164,10.0,15.0,90,0.00,,SCT023,0.01,VWS V14.01,2013-06-10 17:32:00,
2013-06-10 13:37:00,78.2,75.0,29.92,SSE,161,11.0,16.0,90,0.00,,SCT023,0.01,VWS V14.01,2013-06-10 17:37:00,
2013-06-10 13:42:00,78.4,74.9,29.92,SSE,168,9.0,13.0,89,0.00,,BKN050,0.01,VWS V14.01,2013-06-10 17:42:00,
2013-06-10 13:47:00,78.6,75.4,29.91,South,177,10.0,11.0,90,0.00,,BKN050,0.01,VWS V14.01,2013-06-10 17:47:00,
2013-06-10 13:52:00,79.0,75.8,29.91,SSE,161,14.0,14.0,90,0.00,,BKN050,0.01,VWS V14.01,2013-06-10 17:52:00,
2013-06-10 13:57:00,79.1,75.9,29.91,SSE,159,15.0,16.0,90,0.00,,BKN050,0.01,VWS V14.01,2013-06-10 17:57:00,
2013-06-10 14:02:00,79.3,76.1,29.90,SSE,155,13.0,15.0,90,0.00,,BKN050,0.01,VWS V14.01,2013-06-10 18:02:00,
2013-06-10 14:07:00,78.8,75.3,29.90,SSE,153,16.0,18.0,89,0.00,,BKN050,0.01,VWS V14.01,2013-06-10 18:07:00,
2013-06-10 14:13:00,77.7,74.2,29.90,South,180,9.0,17.0,89,0.00,,BKN050,0.01,VWS V14.01,2013-06-10 18:13:00,
2013-06-10 14:18:00,76.7,73.2,29.90,SSE,166,10.0,15.0,89,0.00,,BKN050,0.01,VWS V14.01,2013-06-10 18:18:00,
2013-06-10 14:23:00,76.4,73.6,29.90,South,179,13.0,15.0,91,0.00,,BKN050,0.01,VWS V14.01,2013-06-10 18:23:00,
2013-06-10 14:28:00,76.6,74.1,29.90,SSE,161,10.0,16.0,92,0.00,,BKN050,0.01,VWS V14.01,2013-06-10 18:28:00,
2013-06-10 14:33:00,76.6,74.1,29.90,South,171,11.0,13.0,92,0.00,,BKN050,0.01,VWS V14.01,2013-06-10 18:33:00,
2013-06-10 14:38:00,76.3,74.1,29.90,South,172,6.0,12.0,93,0.01,,BKN050,0.02,VWS V14.01,2013-06-10 18:38:00,
2013-06-10 14:43:00,76.1,74.2,29.90,SSE,163,12.0,15.0,94,0.02,, +RA,0.03,VWS V14.01,2013-06-10 18:43:00,
2013-06-10 14:48:00,75.8,73.9,29.90,SSE,161,8.0,11.0,94,0.04,, +RA,0.05,VWS V14.01,2013-06-10 18:48:00,
2013-06-10 14:53:00,75.7,74.2,29.89,South,170,9.0,11.0,95,0.05,, +RA,0.06,VWS V14.01,2013-06-10 18:53:00,
2013-06-10 14:58:00,75.6,74.1,29.89,South,177,4.0,12.0,95,0.07,, +RA,0.08,VWS V14.01,2013-06-10 18:58:00,
2013-06-10 15:03:00,75.7,74.5,29.89,South,186,13.0,15.0,96,0.08,, +RA,0.09,VWS V14.01,2013-06-10 19:03:00,
2013-06-10 15:08:00,75.7,74.5,29.88,South,171,15.0,17.0,96,0.08,, +RA,0.09,VWS V14.01,2013-06-10 19:08:00,
2013-06-10 15:13:00,76.3,75.4,29.88,SSE,167,17.0,21.0,97,0.08,, +RA,0.09,VWS V14.01,2013-06-10 19:13:00,
2013-06-10 15:18:00,76.4,75.2,29.88,South,184,21.0,24.0,96,0.08,, +RA,0.09,VWS V14.01,2013-06-10 19:18:00,
2013-06-10 15:23:00,76.3,74.8,29.88,SSE,161,20.0,23.0,95,0.08,, +RA,0.09,VWS V14.01,2013-06-10 19:23:00,
2013-06-10 15:28:00,76.2,74.7,29.88,South,177,17.0,21.0,95,0.08,, +RA,0.09,VWS V14.01,2013-06-10 19:28:00,
2013-06-10 15:33:00,76.0,74.5,29.87,SSE,163,16.0,21.0,95,0.08,, +RA,0.09,VWS V14.01,2013-06-10 19:33:00,
2013-06-10 15:38:00,76.5,75.3,29.87,South,186,12.0,17.0,96,0.08,, +RA,0.09,VWS V14.01,2013-06-10 19:38:00,
2013-06-10 15:43:00,76.4,74.9,29.87,South,175,11.0,20.0,95,0.08,,-RA,0.09,VWS V14.01,2013-06-10 19:43:00,
2013-06-10 15:48:00,76.4,75.2,29.87,SSE,165,14.0,18.0,96,0.08,,-RA,0.09,VWS V14.01,2013-06-10 19:48:00,
2013-06-10 15:53:00,76.7,75.2,29.87,SE,146,11.0,18.0,95,0.08,,-RA,0.09,VWS V14.01,2013-06-10 19:53:00,
2013-06-10 15:58:00,76.5,74.7,29.87,SSE,161,20.0,21.0,94,0.08,,-RA,0.09,VWS V14.01,2013-06-10 19:58:00,
2013-06-10 16:03:00,76.2,74.3,29.86,South,175,16.0,18.0,94,0.00,,-RA,0.09,VWS V14.01,2013-06-10 20:03:00,
2013-06-10 16:08:00,76.3,74.8,29.86,SSE,167,16.0,21.0,95,0.00,,-RA,0.09,VWS V14.01,2013-06-10 20:08:00,
2013-06-10 16:13:00,76.1,74.2,29.85,South,171,18.0,24.0,94,0.00,,-RA,0.09,VWS V14.01,2013-06-10 20:13:00,
2013-06-10 16:18:00,75.8,73.6,29.85,South,181,22.0,24.0,93,0.00,,-RA,0.09,VWS V14.01,2013-06-10 20:18:00,
2013-06-10 16:23:00,75.7,73.5,29.85,South,170,19.0,19.0,93,0.00,,-RA,0.09,VWS V14.01,2013-06-10 20:23:00,
2013-06-10 16:28:00,75.7,73.8,29.84,SSW,202,14.0,20.0,94,0.00,,-RA,0.09,VWS V14.01,2013-06-10 20:28:00,
2013-06-10 16:33:00,75.7,73.8,29.84,South,180,18.0,19.0,94,0.00,,-RA,0.09,VWS V14.01,2013-06-10 20:33:00,
2013-06-10 16:38:00,75.7,73.8,29.83,SSE,166,15.0,20.0,94,0.00,,-RA,0.09,VWS V14.01,2013-06-10 20:38:00,
2013-06-10 16:43:00,75.6,74.1,29.83,SSE,166,19.0,19.0,95,0.00,,-RA,0.09,VWS V14.01,2013-06-10 20:43:00,
2013-06-10 16:48:00,75.5,74.0,29.83,SSE,157,18.0,20.0,95,0.00,,-RA,0.09,VWS V14.01,2013-06-10 20:48:00,
2013-06-10 16:53:00,75.5,74.0,29.82,SSE,150,20.0,23.0,95,0.00,,-RA,0.09,VWS V14.01,2013-06-10 20:53:00,
2013-06-10 16:58:00,75.5,74.0,29.82,SSE,161,16.0,24.0,95,0.00,,-RA,0.09,VWS V14.01,2013-06-10 20:58:00,
2013-06-10 17:03:00,75.7,74.5,29.82,SSE,164,16.0,18.0,96,0.00,,-RA,0.09,VWS V14.01,2013-06-10 21:03:00,
2013-06-10 17:08:00,75.8,74.3,29.82,SSE,154,12.0,19.0,95,0.00,,-RA,0.09,VWS V14.01,2013-06-10 21:08:00,
2013-06-10 17:13:00,76.0,74.5,29.82,SSE,152,19.0,23.0,95,0.00,,-RA,0.09,VWS V14.01,2013-06-10 21:13:00,
2013-06-10 17:18:00,76.3,74.8,29.82,SSE,162,16.0,24.0,95,0.00,,-RA,0.09,VWS V14.01,2013-06-10 21:18:00,
2013-06-10 17:23:00,76.3,74.8,29.81,SSE,164,17.0,22.0,95,0.00,,-RA,0.09,VWS V14.01,2013-06-10 21:23:00,
2013-06-10 17:28:00,76.2,74.7,29.81,SSE,165,19.0,20.0,95,0.00,,-RA,0.09,VWS V14.01,2013-06-10 21:28:00,
2013-06-10 17:33:00,76.0,74.2,29.81,South,185,14.0,20.0,94,0.00,,-RA,0.09,VWS V14.01,2013-06-10 21:33:00,
2013-06-10 17:38:00,76.1,74.2,29.81,South,171,16.0,18.0,94,0.00,,-RA,0.09,VWS V14.01,2013-06-10 21:38:00,
2013-06-10 17:43:00,76.1,73.6,29.81,SSE,148,10.0,18.0,92,0.00,,OVC120,0.09,VWS V14.01,2013-06-10 21:43:00,
2013-06-10 17:48:00,76.3,73.8,29.82,South,179,14.0,17.0,92,0.00,,OVC120,0.09,VWS V14.01,2013-06-10 21:48:00,
2013-06-10 17:53:00,76.4,73.9,29.81,South,178,17.0,19.0,92,0.00,,OVC120,0.09,VWS V14.01,2013-06-10 21:53:00,
2013-06-10 17:58:00,76.6,74.1,29.81,SSW,200,12.0,20.0,92,0.00,,OVC120,0.09,VWS V14.01,2013-06-10 21:58:00,
2013-06-10 18:03:00,76.4,73.9,29.81,South,180,16.0,20.0,92,0.00,,OVC120,0.09,VWS V14.01,2013-06-10 22:03:00,
2013-06-10 18:08:00,76.2,73.4,29.80,South,171,18.0,21.0,91,0.00,,OVC120,0.09,VWS V14.01,2013-06-10 22:08:00,
2013-06-10 18:13:00,76.4,73.6,29.80,South,179,18.0,24.0,91,0.00,,OVC120,0.09,VWS V14.01,2013-06-10 22:13:00,
2013-06-10 18:18:00,76.7,73.2,29.80,South,169,12.0,22.0,89,0.00,,OVC120,0.09,VWS V14.01,2013-06-10 22:18:00,
2013-06-10 18:23:00,76.5,73.0,29.80,SSE,161,14.0,26.0,89,0.00,,OVC120,0.09,VWS V14.01,2013-06-10 22:23:00,
2013-06-10 18:28:00,76.3,73.2,29.80,South,175,12.0,21.0,90,0.00,,OVC120,0.09,VWS V14.01,2013-06-10 22:28:00,
2013-06-10 18:34:00,76.2,73.1,29.80,South,170,19.0,23.0,90,0.00,,OVC120,0.09,VWS V14.01,2013-06-10 22:34:00,
2013-06-10 18:38:00,76.2,73.1,29.81,South,181,12.0,20.0,90,0.00,,OVC120,0.09,VWS V14.01,2013-06-10 22:38:00,
2013-06-10 18:44:00,76.4,73.2,29.81,South,179,7.0,17.0,90,0.00,,BKN200,0.09,VWS V14.01,2013-06-10 22:44:00,
2013-06-10 18:49:00,76.3,73.2,29.80,SSW,196,21.0,23.0,90,0.00,,BKN200,0.09,VWS V14.01,2013-06-10 22:49:00,
2013-06-10 18:54:00,76.2,73.1,29.81,SSW,195,14.0,23.0,90,0.00,,BKN200,0.09,VWS V14.01,2013-06-10 22:54:00,
2013-06-10 18:59:00,76.1,73.0,29.81,South,177,10.0,19.0,90,0.00,,BKN200,0.09,VWS V14.01,2013-06-10 22:59:00,
2013-06-10 19:04:00,75.9,72.8,29.81,SSE,167,19.0,20.0,90,0.00,,BKN200,0.09,VWS V14.01,2013-06-10 23:04:00,
2013-06-10 19:09:00,75.8,72.7,29.81,South,185,14.0,27.0,90,0.00,,BKN200,0.09,VWS V14.01,2013-06-10 23:09:00,
2013-06-10 19:14:00,75.9,72.8,29.81,South,183,14.0,21.0,90,0.00,,BKN200,0.09,VWS V14.01,2013-06-10 23:14:00,
2013-06-10 19:19:00,75.7,72.6,29.81,South,179,17.0,20.0,90,0.00,,BKN200,0.09,VWS V14.01,2013-06-10 23:19:00,
2013-06-10 19:24:00,75.6,72.5,29.81,SSE,162,12.0,26.0,90,0.00,,BKN200,0.09,VWS V14.01,2013-06-10 23:24:00,
2013-06-10 19:29:00,75.5,72.4,29.80,SSE,163,20.0,23.0,90,0.00,,BKN200,0.09,VWS V14.01,2013-06-10 23:29:00,
2013-06-10 19:34:00,75.5,72.4,29.80,South,184,22.0,22.0,90,0.00,,BKN200,0.09,VWS V14.01,2013-06-10 23:34:00,
2013-06-10 19:39:00,75.5,72.4,29.80,South,174,17.0,20.0,90,0.00,,BKN200,0.09,VWS V14.01,2013-06-10 23:39:00,
2013-06-10 19:44:00,75.5,72.4,29.80,SSE,154,14.0,25.0,90,0.00,,BKN250,0.09,VWS V14.01,2013-06-10 23:44:00,
2013-06-10 19:49:00,75.5,72.4,29.80,SSE,161,14.0,22.0,90,0.00,,BKN250,0.09,VWS V14.01,2013-06-10 23:49:00,
2013-06-10 19:54:00,75.3,72.5,29.80,SSW,197,17.0,20.0,91,0.00,,BKN250,0.09,VWS V14.01,2013-06-10 23:54:00,
2013-06-10 19:59:00,75.0,72.2,29.80,South,176,10.0,21.0,91,0.00,,BKN250,0.09,VWS V14.01,2013-06-10 23:59:00,
2013-06-10 20:04:00,74.8,72.3,29.80,South,177,18.0,27.0,92,0.00,,BKN250,0.09,VWS V14.01,2013-06-11 00:04:00,
2013-06-10 20:09:00,74.8,72.0,29.80,South,177,17.0,26.0,91,0.00,,BKN250,0.09,VWS V14.01,2013-06-11 00:09:00,
2013-06-10 20:14:00,74.8,72.3,29.80,SSW,202,15.0,24.0,92,0.00,,OVC200,0.09,VWS V14.01,2013-06-11 00:14:00,
2013-06-10 20:19:00,74.6,72.4,29.80,South,183,21.0,22.0,93,0.00,,OVC200,0.09,VWS V14.01,2013-06-11 00:19:00,
2013-06-10 20:24:00,74.5,72.3,29.80,South,179,20.0,25.0,93,0.00,,OVC200,0.09,VWS V14.01,2013-06-11 00:24:00,
2013-06-10 20:29:00,74.4,72.6,29.80,SSE,161,20.0,29.0,94,0.00,,OVC200,0.09,VWS V14.01,2013-06-11 00:29:00,
2013-06-10 20:34:00,74.4,72.9,29.79,South,175,16.0,23.0,95,0.00,,OVC200,0.09,VWS V14.01,2013-06-11 00:34:00,
2013-06-10 20:39:00,74.3,72.8,29.79,SSE,166,15.0,25.0,95,0.00,,OVC200,0.09,VWS V14.01,2013-06-11 00:39:00,
2013-06-10 20:44:00,74.3,72.8,29.80,South,184,22.0,28.0,95,0.00,,OVC200,0.09,VWS V14.01,2013-06-11 00:44:00,
2013-06-10 20:49:00,74.2,72.7,29.80,South,172,15.0,22.0,95,0.00,,OVC200,0.09,VWS V14.01,2013-06-11 00:49:00,
2013-06-10 20:54:00,74.2,72.7,29.80,South,170,18.0,21.0,95,0.00,,OVC200,0.09,VWS V14.01,2013-06-11 00:54:00,
2013-06-10 20:59:00,74.2,72.7,29.80,South,181,13.0,22.0,95,0.00,,OVC200,0.09,VWS V14.01,2013-06-11 00:59:00,
2013-06-10 21:04:00,74.1,72.6,29.81,SSE,162,15.0,19.0,95,0.01,,OVC200,0.10,VWS V14.01,2013-06-11 01:04:00,
2013-06-10 21:09:00,74.0,72.5,29.81,SSE,165,20.0,21.0,95,0.02,,OVC200,0.11,VWS V14.01,2013-06-11 01:09:00,
2013-06-10 21:14:00,73.8,72.6,29.81,SE,145,13.0,16.0,96,0.03,,OVC200,0.12,VWS V14.01,2013-06-11 01:14:00,
2013-06-10 21:19:00,73.7,72.5,29.80,South,175,19.0,25.0,96,0.04,,OVC200,0.13,VWS V14.01,2013-06-11 01:19:00,
2013-06-10 21:24:00,73.6,72.4,29.81,South,173,9.0,19.0,96,0.06,,OVC200,0.15,VWS V14.01,2013-06-11 01:24:00,
2013-06-10 21:29:00,73.5,72.3,29.82,SSW,210,5.0,16.0,96,0.09,,OVC200,0.18,VWS V14.01,2013-06-11 01:29:00,
2013-06-10 21:34:00,73.3,72.1,29.82,South,179,5.0,14.0,96,0.12,,OVC200,0.21,VWS V14.01,2013-06-11 01:34:00,
2013-06-10 21:39:00,73.2,72.3,29.82,South,173,10.0,13.0,97,0.17,,OVC200,0.26,VWS V14.01,2013-06-11 01:39:00,
2013-06-10 21:44:00,73.2,72.3,29.82,SSE,164,10.0,11.0,97,0.22,,-RA,0.31,VWS V14.01,2013-06-11 01:44:00,
2013-06-10 21:49:00,73.1,72.2,29.82,South,169,6.0,8.0,97,0.27,,-RA,0.36,VWS V14.01,2013-06-11 01:49:00,
2013-06-10 21:54:00,73.2,72.6,29.82,ESE,119,5.0,11.0,98,0.32,,-RA,0.41,VWS V14.01,2013-06-11 01:54:00,
2013-06-10 21:59:00,73.2,72.6,29.82,South,171,4.0,13.0,98,0.37,,-RA,0.46,VWS V14.01,2013-06-11 01:59:00,
2013-06-10 22:04:00,72.9,72.0,29.82,SW,231,12.0,16.0,97,0.43,,-RA,0.53,VWS V14.01,2013-06-11 02:04:00,
2013-06-10 22:09:00,71.8,70.6,29.82,SW,214,4.0,9.0,96,0.51,,-RA,0.61,VWS V14.01,2013-06-11 02:09:00,
2013-06-10 22:14:00,71.3,70.4,29.82,SSW,192,2.0,6.0,97,0.57,,-RA,0.67,VWS V14.01,2013-06-11 02:14:00,
2013-06-10 22:19:00,71.1,70.5,29.82,WSW,249,6.0,9.0,98,0.64,,-RA,0.74,VWS V14.01,2013-06-11 02:19:00,
2013-06-10 22:24:00,71.2,70.6,29.82,SSW,201,2.0,10.0,98,0.70,,-RA,0.80,VWS V14.01,2013-06-11 02:24:00,
2013-06-10 22:29:00,71.3,70.7,29.82,SSW,213,5.0,10.0,98,0.75,,-RA,0.85,VWS V14.01,2013-06-11 02:29:00,
2013-06-10 22:34:00,71.2,70.6,29.82,SSW,212,4.0,12.0,98,0.71,,-RA,0.90,VWS V14.01,2013-06-11 02:34:00,
2013-06-10 22:39:00,71.1,70.5,29.81,SW,229,12.0,17.0,98,0.76,,-RA,0.95,VWS V14.01,2013-06-11 02:39:00,
2013-06-10 22:44:00,70.6,69.7,29.81,South,188,4.0,12.0,97,0.79,,-RA,0.98,VWS V14.01,2013-06-11 02:44:00,
2013-06-10 22:49:00,70.4,69.5,29.80,SSW,202,4.0,7.0,97,0.82,,-RA,1.01,VWS V14.01,2013-06-11 02:49:00,
2013-06-10 22:54:00,70.5,69.6,29.80,South,173,6.0,9.0,97,0.85,,-RA,1.04,VWS V14.01,2013-06-11 02:54:00,
2013-06-10 22:59:00,70.6,69.7,29.81,SSE,164,6.0,12.0,97,0.85,,-RA,1.04,VWS V14.01,2013-06-11 02:59:00,
2013-06-10 23:04:00,70.6,69.7,29.81,South,171,8.0,11.0,97,0.57,,-RA,1.04,VWS V14.01,2013-06-11 03:04:00,
2013-06-10 23:09:00,70.7,69.8,29.81,SSW,206,5.0,12.0,97,0.57,,-RA,1.04,VWS V14.01,2013-06-11 03:09:00,
2013-06-10 23:14:00,70.8,69.6,29.80,SSW,208,11.0,13.0,96,0.57,,-RA,1.04,VWS V14.01,2013-06-11 03:14:00,
2013-06-10 23:19:00,70.8,69.6,29.80,SSE,165,4.0,12.0,96,0.57,,-RA,1.04,VWS V14.01,2013-06-11 03:19:00,
2013-06-10 23:24:00,70.9,69.7,29.80,SW,229,10.0,10.0,96,0.57,,-RA,1.04,VWS V14.01,2013-06-11 03:24:00,
2013-06-10 23:29:00,70.9,69.7,29.80,SW,220,5.0,16.0,96,0.57,,-RA,1.04,VWS V14.01,2013-06-11 03:29:00,
2013-06-10 23:34:00,70.9,69.4,29.79,SSW,206,6.0,10.0,95,0.18,,-RA,1.04,VWS V14.01,2013-06-11 03:34:00,
2013-06-10 23:39:00,70.9,69.4,29.79,WSW,243,5.0,11.0,95,0.18,,-RA,1.04,VWS V14.01,2013-06-11 03:39:00,
2013-06-10 23:45:00,71.0,69.5,29.79,South,190,7.0,9.0,95,0.18,,BKN060,1.04,VWS V14.01,2013-06-11 03:45:00,
2013-06-10 23:50:00,71.1,69.6,29.79,SSW,204,5.0,9.0,95,0.18,,BKN060,1.04,VWS V14.01,2013-06-11 03:50:00,
2013-06-10 23:55:00,71.1,69.6,29.79,SW,222,4.0,10.0,95,0.18,,SCT060,1.04,VWS V14.01,2013-06-11 03:55:00,